Regional Weather Roundup
Issued by NWS Newport/Morehead, NC

Current Version | Previous Version | Graphics & Text | Print | Product List | Glossary On
Versions: 1 2 3 4 5 6 7 8 9 10 11 12 13 14 15 16 17 18 19 20 21 22 23 24 25 26 27 28 29 30 31 32 33 34 35 36 37 38 39 40 41 42 43 44 45 46 47 48 49 50
000 ASUS42 KMHX 252125 RWRMHX WEATHER ROUNDUP FOR EASTERN NORTH CAROLINA NATIONAL WEATHER SERVICE NEWPORT/MOREHEAD CITY NC 500 PM EDT MON MAY 25 2015 NOTE: "FAIR" INDICATES FEW OR NO CLOUDS BELOW 12,000 FEET WITH NO SIGNIFICANT WEATHER AND/OR OBSTRUCTIONS TO VISIBILITY NCZ015>017-031-032-045>047-102-103-252200- NORTH COAST CITY SKY/WX TMP DP RH WIND PRES REMARKS EDENTON N/A 81 51 35 S12 30.29S ELIZABETH CITY SUNNY 79 52 38 SE13 30.29F KITTY HAWK CLEAR 77 59 53 S8G17 30.30F MANTEO SUNNY 75 60 57 S14 30.32S $$ NCZ045>047-081-094-103-104-252200- CENTRAL COAST CITY SKY/WX TMP DP RH WIND PRES REMARKS FRISCO MOSUNNY 76 59 55 S10 30.33S SWANQUARTER N/A 79 N/A N/A S8G17 30.27S $$ NCZ095-097-098-100-101-252200- SOUTHERN COAST CITY SKY/WX TMP DP RH WIND PRES REMARKS BEAUFORT MOSUNNY 76 62 62 S9 30.31F CEDAR ISLAND N/A 79 N/A N/A SE14 30.36S JACKSONVILLE MOSUNNY 78 60 53 S13 30.30S PINEY ISLAND CLEAR N/A N/A N/A SE9G18 30.31F WILMINGTON MOSUNNY 78 61 55 S12 30.30S $$ NCZ011>013-027>030-043-044-078>080-089-090>093-098-252200- COASTAL PLAIN CITY SKY/WX TMP DP RH WIND PRES REMARKS AHOSKIE SUNNY 81 58 45 S10 30.27S CLINTON SUNNY 84 61 44 CALM 30.27S ELIZABETHTOWN SUNNY 84 53 34 S6 30.27S GOLDSBORO SUNNY 85 58 40 S8 30.24F GREENVILLE SUNNY 84 52 32 S10 30.28S HAVELOCK MOSUNNY 78 60 53 S9 30.31F KENANSVILLE SUNNY 82 54 39 SW5 30.28F KINSTON SUNNY 84 55 37 S12 30.28F NEW BERN SUNNY 81 55 40 SE9 30.31S RICHLANDS SUNNY 81 57 44 S13 30.30S ROCKY MOUNT SUNNY 85 56 37 S8 30.26F WASHINGTON SUNNY 81 53 37 S9 30.29R WHITEVILLE SUNNY 80 59 47 S7 30.28S $$ AMZ130-135-150-152-154-156-158-170-250-252-270-ANZ085-086-088-633-658-670-252200- MARINE OBSERVATIONS STATION/POSITION TIME TEMP WIND PRES WAVE SWELL AIR SEA DIR/SP/G HT/PER HT/PER (UTC) (F) (DEG/KT/KT) (MB) (FT/S) (FT/S) CHESAPEAKE LIGHT 2100 69 160/ 19/ 20 1026.2 64 E VA BEACH 2050 67 65 160/ 6/ 8 1026.6 1/ 9 2/ 9 DUCK 2100 70 65 130/ 16/ 18 1025.1 2 E DUCK 2011 66 N/A 2/ 8 OREGON INLET 2100 75 77 160/ 10/ 14 1026.7 13E OREGON INLT 2100 70 N/A 1/ 7 HATTERAS CG 2100 76 75 160/ 8/ 12 1026.4 DIAMOND BUOY 2050 74 78 160/ 10/ 14 1026.8 2/ 8 2/ 8 CAPE LOOKOUT 2100 74 140/ 9/ 11 1026.2 BEAUFORT LAB 2100 75 75 170/ 9/ 12 1025.6 27 SE WRIGHTSVLE 2100 72 77 160/ 10/ 12 N/A 5 SE WRIGHTSVLE 2008 75 77 180/ 10/ 14 1026.2 225 S CAPE HAT 2050 75 75 110/ 12/ 14 1026.4 3/ 6 2/ 6 41 SE CHARLESTON 2050 76 76 100/ 10/ 12 1024.7 4/ 6 3/ 6 $$

USA.gov is the U.S. government's official web portal to all federal, state and local government web resources and services.